Location: St. Louis
(38.6270°N, 90.1994°W)
Time: 07:05:11
(UTC-05:00)

Envisat - Visible Passes

Search period start: 28 March 2023 00:00
Search period end: 07 April 2023 00:00
Orbit: 763 x 765 km, 98.2° (Epoch: 28 March)

Date Brightness Start Highest point End Pass type
(mag) Time Alt. Az. Time Alt. Az. Time Alt. Az.
28 Mar 4.3 04:24:19 10° NNE 04:29:01 37° E 04:32:00 20° SSE visible
28 Mar 4.1 06:03:45 10° NNW 06:07:47 24° WNW 06:11:49 10° WSW visible
29 Mar 5.5 03:48:34 10° NE 03:51:40 16° E 03:54:37 10° SE visible
29 Mar 3.1 05:26:01 10° N 05:30:57 54° WNW 05:34:48 16° SW visible
30 Mar 3.3 04:48:51 10° NNE 04:53:55 66° ESE 04:57:24 20° S visible
31 Mar 4.7 04:12:20 10° NE 04:16:41 28° E 04:20:01 15° SSE visible
31 Mar 3.8 05:51:12 10° N 05:55:37 31° WNW 06:00:02 10° SW visible
01 Apr 5.7 03:37:21 10° ENE 03:39:15 12° E 03:41:11 10° ESE visible
01 Apr 2.9 05:13:39 10° N 05:18:43 71° WNW 05:22:49 16° SSW visible
02 Apr 3.7 04:36:41 10° NNE 04:41:38 50° E 04:45:25 16° S visible
02 Apr 4.5 06:16:45 10° NNW 06:20:11 19° WNW 06:23:37 10° WSW visible
03 Apr 5.1 04:00:26 10° NE 04:04:19 22° E 04:08:01 11° SE visible
03 Apr 3.5 05:38:42 10° N 05:43:25 40° WNW 05:48:08 10° SW visible
04 Apr 2.9 05:01:21 10° NNE 05:06:27 89° ESE 05:10:48 14° SSW visible
05 Apr 4.2 04:24:34 10° NNE 04:29:18 38° E 04:33:23 13° SSE visible
05 Apr 4.2 06:04:02 10° NNW 06:08:01 24° WNW 06:12:00 10° WSW visible
06 Apr 5.5 03:48:43 10° NE 03:51:55 17° E 03:55:06 10° SE visible
06 Apr 3.2 05:26:16 10° N 05:31:12 52° WNW 05:36:06 10° SSW visible
